Wind_Speed
9 9 9 8 8 7 7 7 7 7 7 7 7 7 7 7 7 7 8 8 7 6 6 6 6 6 6 7 8 8 8 8 7 7 7 7 8 8 8 8 8 7 8
9 10 10 10 10 9 8 8 9 8 8 9 9 9 9 8 8 8 8 8 7 6 6 6 6 7 7 8 8 9 9 9 9 8 8 8 8 8 8 8 9 8 9
10 10 10 9 10 10 10 10 10 10 10 10 10 10 10 10 9 8 8 7 7 7 7 7 8 8 9 9 9 9 9 9 9 9 9 9 9 9 9 9 9 10 9
11 10 10 10 9 9 10 11 10 10 10 10 10 11 11 11 10 10 9 8 8 7 7 8 9 9 10 9 9 9 10 9 9 9 9 10 10 10 9 10 10 11 11
11 11 11 10 9 10 10 11 11 11 11 11 11 11 11 12 11 11 10 10 9 8 8 8 9 9 9 9 9 9 9 9 10 10 10 10 10 10 10 10 11 11 11
12 11 11 10 10 10 11 11 11 11 11 11 11 11 12 12 12 12 11 11 11 10 9 9 9 9 10 10 10 10 10 10 10 10 11 11 11 11 11 11 11 11 11
12 11 11 11 11 11 11 11 11 11 12 12 11 11 12 12 13 12 12 12 11 11 11 11 11 10 11 11 11 11 12 11 11 11 11 11 11 11 11 12 12 11 11
13 12 12 13 13 12 12 12 12 12 12 12 12 12 12 12 12 13 13 12 12 12 12 13 12 12 12 12 12 12 12 12 12 12 12 12 12 12 12 11 11 11 11
14 14 13 13 14 13 13 13 13 13 12 12 12 13 13 13 13 12 14 14 13 12 12 13 13 13 13 14 13 13 12 12 13 13 13 13 13 13 13 12 13 12 11
14 14 14 14 14 14 14 14 14 13 13 13 13 13 13 13 14 14 14 14 14 13 13 13 13 14 15 15 14 13 13 14 14 14 14 14 14 14 15 15 14 14 13
14 14 14 16 16 16 15 15 14 14 14 14 13 13 13 13 13 14 13 13 13 13 13 12 12 13 14 15 15 14 14 15 14 14 15 15 16 16 16 16 16 15 15
15 15 15 16 17 17 16 16 16 15 14 14 14 14 14 14 15 15 14 14 13 13 13 13 13 13 13 14 15 15 15 15 16 16 16 16 16 16 16 16 16 16 16
16 16 16 16 17 16 16 17 17 16 15 14 15 15 14 14 15 16 16 16 15 14 14 14 14 15 14 15 15 15 15 15 15 16 17 17 17 16 17 17 17 16 16
16 16 16 16 17 17 16 16 17 16 16 16 16 15 15 15 15 15 16 16 16 16 16 16 16 16 16 16 16 16 16 16 16 16 17 17 17 17 17 17 17 18 17
18 17 16 16 17 18 18 17 17 17 18 18 18 17 17 16 16 16 16 16 17 17 18 17 17 17 17 17 17 17 17 16 16 17 18 18 18 18 17 17 18 18 18
19 18 18 18 18 19 19 19 19 19 18 19 19 19 19 18 18 17 17 17 18 18 18 18 18 19 19 18 18 18 18 18 18 18 18 19 19 19 18 17 17 18 18
19 19 19 19 20 20 20 20 20 20 20 20 20 20 20 20 19 19 19 19 19 19 19 20 20 20 20 20 19 19 19 19 20 20 20 20 20 19 19 19 19 19 19
20 20 20 21 21 20 21 21 21 21 21 21 21 21 21 21 22 22 22 21 21 21 21 21 22 22 22 21 21 21 20 20 20 20 20 20 20 21 21 20 20 20 20
21 21 21 21 21 20 21 22 22 22 22 22 22 22 23 23 23 23 23 23 22 23 23 23 23 23 22 22 22 22 22 21 21 21 21 21 21 21 21 21 21 21 21
20 20 20 21 21 21 21 22 22 22 23 23 23 23 24 24 24 25 24 24 23 23 23 23 24 24 24 23 23 23 23 22 22 22 22 22 22 22 22 21 21 21 21
19 19 20 20 21 22 22 23 22 23 24 24 24 24 24 24 24 25 24 25 25 24 23 23 23 24 24 24 24 24 23 23 23 23 23 23 23 22 22 22 22 22 21
18 18 19 20 21 21 22 22 23 23 24 24 24 25 24 25 24 24 25 25 25 24 24 24 24 25 24 24 24 25 24 24 24 24 24 24 23 23 22 22 22 22 22
18 18 18 19 19 20 21 21 21 23 23 23 24 24 24 24 25 24 25 25 25 25 25 25 25 26 25 25 26 26 26 25 25 24 24 24 24 24 24 24 23 23 23
18 18 19 20 20 20 20 21 21 22 22 22 22 23 23 23 24 25 25 25 25 25 26 26 26 26 26 27 27 27 27 26 25 25 25 25 25 25 25 25 24 24 23
18 18 19 20 20 20 21 21 21 21 21 22 22 23 24 24 24 25 25 25 26 26 26 27 26 26 27 27 27 27 27 26 26 26 25 25 26 26 26 25 25 24 23
18 19 19 20 20 20 21 22 21 21 22 22 23 23 24 25 25 25 25 26 26 26 27 27 26 26 27 27 26 26 26 25 25 25 25 25 25 26 26 26 25 25 24
Wind_Direction
295 294 286 278 269 266 268 268 266 256 254 251 253 255 257 260 260 264 269 268 266 266 260 254 248 238 243 240 244 246 244 246 252 257 257 256 259 262 265 265 260 263 262
302 296 284 275 268 263 263 264 263 256 255 255 254 253 254 255 264 262 264 263 257 256 256 252 251 246 249 249 245 246 247 248 251 253 253 254 257 262 264 264 260 264 264
300 296 286 276 267 264 262 260 261 258 257 257 257 253 253 255 256 256 256 256 253 254 254 252 251 249 251 254 251 249 252 253 255 257 255 255 256 259 262 264 266 267 266
296 290 283 277 266 264 261 258 258 259 256 255 253 248 249 251 252 252 254 256 255 258 257 256 255 253 253 256 259 256 256 258 260 260 259 259 260 262 265 269 270 269 268
293 285 278 273 269 268 263 256 256 259 257 255 251 249 249 248 249 250 252 254 257 260 261 260 259 258 259 259 262 259 258 259 259 260 262 261 261 261 264 268 271 271 272
292 283 275 271 266 265 263 257 255 256 256 256 255 253 251 246 246 246 249 252 258 261 262 261 261 261 262 262 262 261 258 260 260 261 262 261 258 259 262 266 271 273 274
292 282 271 267 261 261 262 260 254 254 256 253 251 252 248 245 246 246 248 252 256 261 261 260 261 262 262 263 265 263 262 263 263 262 262 263 261 261 263 266 269 273 274
287 279 270 265 260 260 259 259 256 257 256 253 251 249 247 244 245 247 248 253 258 261 260 259 261 262 261 262 266 265 265 264 266 262 260 260 262 261 262 267 267 269 271
288 283 272 262 259 260 259 258 257 260 253 252 254 251 247 243 244 247 249 252 256 260 263 263 264 262 261 262 265 264 266 267 269 268 263 261 261 259 260 264 269 270 270
286 282 272 262 259 260 259 259 261 258 256 253 254 253 250 249 249 249 250 251 255 260 262 264 264 264 263 261 263 264 265 267 269 270 268 265 262 259 259 263 266 268 267
283 281 273 263 260 259 259 260 261 258 256 252 250 250 251 251 253 253 252 255 258 260 261 263 264 265 263 262 262 264 265 266 268 269 269 267 265 263 264 264 265 266 268
282 278 271 266 262 262 258 257 259 258 256 252 249 251 253 253 252 252 253 255 259 260 261 261 262 262 263 263 262 263 264 266 267 267 266 265 266 266 264 262 261 263 267
280 277 271 266 263 260 259 256 256 256 254 250 251 254 255 257 255 253 254 256 256 258 261 263 264 263 265 264 263 264 266 267 267 266 265 265 266 266 266 263 261 265 270
277 274 270 265 261 260 258 258 256 254 253 249 251 254 254 255 255 255 255 256 256 258 261 263 263 263 264 265 264 265 266 268 266 265 264 264 265 265 265 264 262 264 269
276 273 268 268 263 258 257 256 254 254 249 246 249 252 254 251 253 256 257 259 262 263 262 263 263 262 264 265 267 267 267 267 265 264 263 264 264 265 268 265 264 266 267
274 271 267 266 263 258 255 253 252 253 251 249 250 251 252 250 253 256 258 261 263 262 262 262 263 265 265 266 269 270 268 266 266 265 264 265 266 266 268 268 267 269 269
271 268 265 264 264 259 256 253 251 252 252 252 252 253 252 252 253 256 258 261 264 262 261 260 261 264 266 266 268 268 268 267 266 264 264 265 267 267 267 268 269 269 269
269 267 265 264 263 262 259 255 252 252 252 254 254 254 254 256 256 258 259 260 263 262 260 260 261 264 266 267 267 267 267 267 265 264 265 265 266 269 269 269 270 270 270
269 266 264 262 263 264 261 258 254 253 254 256 256 257 257 258 258 259 260 260 262 263 261 261 260 263 265 267 267 266 267 266 267 267 267 268 268 269 270 271 272 273 272
266 265 263 262 263 264 263 260 259 258 256 257 258 258 258 259 260 260 261 261 262 263 262 262 262 261 262 264 266 267 267 267 266 267 268 269 269 271 272 272 272 272 273
264 263 262 263 264 265 264 262 261 260 259 259 260 260 259 260 262 261 261 264 264 263 263 263 262 262 263 264 266 267 268 267 267 267 268 268 269 271 271 271 271 271 273
266 265 264 266 268 267 264 264 262 262 262 261 261 261 261 259 260 261 263 265 264 263 263 263 263 264 265 265 265 267 267 268 268 268 268 269 270 270 270 272 273 273 274
269 267 269 268 268 267 266 266 263 262 263 263 263 263 263 261 260 262 263 265 265 263 262 264 264 264 264 266 267 267 267 268 269 269 269 270 270 269 271 272 272 273 274
271 269 269 268 269 268 267 267 265 264 263 262 263 264 265 265 264 264 263 263 264 266 265 264 265 266 265 266 267 267 267 267 267 269 269 269 269 270 271 271 271 273 274
269 270 269 270 271 269 268 267 265 263 264 265 265 264 263 265 266 265 264 263 264 266 267 266 265 266 267 268 267 267 267 266 267 269 269 269 269 269 270 271 271 272 274
269 270 270 270 269 269 268 267 265 263 264 265 265 264 264 264 265 268 268 267 266 265 266 267 266 265 266 268 268 267 266 265 265 267 269 270 270 269 269 269 270 272 273
Height
5860 5860 5860 5860 5860 5860 5861 5862 5863 5863 5864 5865 5865 5866 5867 5868 5868 5869 5869 5869 5869 5869 5870 5870 5870 5871 5871 5871 5872 5873 5874 5874 5875 5875 5876 5876 5877 5878 5878 5878 5879 5879 5880
5858 5858 5858 5857 5857 5858 5859 5860 5861 5861 5862 5863 5863 5864 5865 5866 5866 5867 5867 5867 5868 5868 5868 5868 5869 5869 5869 5870 5870 5871 5871 5872 5873 5873 5874 5875 5875 5876 5876 5876 5877 5877 5877
5856 5855 5855 5855 5855 5856 5856 5857 5858 5859 5860 5860 5861 5862 5863 5864 5864 5865 5865 5866 5866 5866 5867 5867 5867 5867 5868 5868 5868 5869 5869 5870 5871 5871 5872 5873 5873 5873 5874 5874 5875 5875 5875
5853 5853 5852 5852 5852 5853 5854 5854 5855 5856 5857 5858 5858 5859 5860 5861 5862 5862 5863 5864 5864 5864 5865 5865 5865 5865 5866 5866 5866 5867 5867 5868 5868 5869 5870 5870 5871 5871 5871 5872 5872 5872 5872
5850 5850 5850 5850 5850 5850 5851 5852 5852 5853 5854 5855 5855 5856 5857 5858 5859 5860 5861 5861 5862 5862 5862 5862 5863 5863 5864 5864 5864 5865 5865 5866 5866 5867 5867 5868 5868 5869 5869 5869 5869 5870 5870
5847 5847 5847 5847 5847 5848 5848 5848 5849 5850 5850 5851 5852 5853 5854 5855 5856 5857 5858 5859 5859 5859 5859 5860 5860 5861 5861 5862 5862 5862 5862 5863 5863 5864 5865 5865 5865 5866 5866 5867 5867 5867 5867
5844 5844 5844 5844 5845 5845 5845 5845 5846 5847 5847 5848 5849 5850 5850 5852 5853 5854 5855 5856 5856 5856 5857 5857 5858 5858 5858 5859 5859 5859 5860 5860 5860 5861 5862 5862 5863 5863 5863 5864 5864 5864 5864
5841 5841 5841 5842 5842 5842 5842 5842 5843 5843 5844 5845 5846 5847 5848 5849 5850 5851 5852 5853 5853 5854 5854 5854 5855 5855 5856 5856 5856 5856 5857 5857 5858 5858 5859 5859 5860 5860 5860 5861 5861 5861 5861
5837 5837 5837 5838 5839 5839 5839 5839 5840 5840 5841 5842 5843 5844 5845 5846 5846 5848 5849 5850 5850 5851 5851 5851 5852 5852 5852 5853 5853 5853 5854 5854 5854 5855 5855 5855 5856 5856 5857 5857 5858 5857 5858
5833 5833 5833 5834 5835 5835 5835 5836 5836 5837 5838 5838 5839 5840 5842 5842 5843 5844 5846 5846 5847 5847 5848 5848 5848 5849 5849 5850 5850 5850 5850 5851 5851 5851 5851 5852 5852 5853 5853 5854 5854 5854 5854
5829 5829 5829 5830 5831 5831 5832 5832 5833 5834 5834 5835 5836 5837 5838 5839 5840 5841 5842 5843 5844 5844 5844 5845 5845 5845 5845 5846 5846 5847 5847 5847 5847 5847 5847 5848 5848 5849 5849 5849 5849 5850 5850
5826 5825 5825 5825 5826 5827 5828 5828 5829 5830 5831 5832 5832 5833 5834 5835 5836 5837 5838 5839 5840 5840 5841 5841 5842 5842 5842 5842 5842 5843 5843 5843 5843 5843 5843 5843 5844 5844 5844 5845 5845 5845 5845
5822 5821 5821 5821 5822 5822 5823 5824 5825 5826 5827 5828 5829 5830 5830 5831 5832 5833 5835 5835 5836 5837 5837 5837 5838 5838 5838 5838 5838 5838 5839 5839 5839 5839 5839 5839 5839 5840 5840 5840 5841 5841 5841
5817 5817 5817 5817 5817 5818 5819 5820 5821 5821 5822 5823 5825 5826 5827 5827 5828 5830 5831 5831 5832 5833 5833 5833 5833 5834 5834 5834 5834 5834 5834 5834 5834 5834 5834 5834 5834 5835 5835 5835 5836 5836 5836
5812 5812 5812 5813 5813 5813 5814 5815 5816 5817 5818 5819 5820 5821 5822 5823 5824 5825 5826 5827 5828 5828 5828 5828 5828 5829 5829 5829 5829 5829 5829 5829 5829 5829 5829 5829 5830 5830 5830 5830 5830 5831 5831
5807 5807 5807 5808 5808 5808 5809 5810 5811 5812 5813 5814 5815 5816 5817 5818 5819 5820 5821 5822 5822 5823 5823 5823 5823 5824 5824 5824 5824 5824 5824 5824 5824 5824 5824 5824 5824 5825 5825 5825 5825 5825 5825
5801 5802 5802 5802 5803 5803 5804 5805 5806 5807 5808 5809 5810 5811 5812 5813 5814 5815 5815 5816 5816 5817 5817 5818 5818 5819 5819 5819 5819 5819 5819 5819 5819 5819 5819 5819 5819 5819 5819 5819 5819 5819 5819
5795 5796 5796 5796 5797 5798 5798 5799 5800 5801 5802 5803 5804 5805 5806 5807 5808 5809 5810 5810 5811 5811 5812 5812 5813 5813 5813 5814 5814 5814 5814 5814 5814 5814 5814 5814 5814 5814 5813 5814 5814 5814 5814
5789 5790 5790 5791 5791 5792 5792 5793 5794 5795 5796 5797 5798 5799 5800 5801 5802 5802 5803 5804 5804 5805 5805 5806 5807 5807 5807 5808 5808 5808 5808 5808 5808 5808 5808 5808 5808 5808 5808 5808 5808 5808 5808
5783 5784 5784 5785 5785 5786 5786 5787 5787 5788 5789 5790 5791 5792 5793 5794 5795 5796 5796 5797 5797 5798 5799 5800 5800 5801 5801 5801 5802 5802 5802 5802 5802 5802 5802 5802 5802 5802 5802 5802 5802 5802 5802
5777 5777 5778 5779 5779 5779 5780 5780 5780 5781 5782 5783 5784 5785 5786 5787 5788 5788 5789 5790 5791 5791 5792 5793 5793 5794 5794 5795 5795 5796 5796 5796 5796 5796 5796 5796 5796 5796 5796 5795 5795 5795 5795
5771 5771 5772 5772 5772 5773 5773 5773 5774 5775 5775 5776 5777 5778 5779 5780 5781 5781 5782 5783 5784 5785 5786 5786 5786 5787 5787 5788 5788 5789 5789 5789 5789 5790 5790 5790 5790 5790 5789 5789 5789 5789 5789
5765 5766 5766 5766 5766 5766 5767 5767 5768 5768 5769 5769 5770 5771 5772 5773 5773 5775 5775 5776 5776 5777 5778 5779 5779 5780 5780 5781 5782 5782 5782 5782 5782 5783 5783 5783 5783 5783 5783 5783 5783 5783 5782
5759 5760 5760 5760 5760 5760 5760 5761 5761 5761 5762 5762 5763 5764 5765 5766 5767 5767 5768 5769 5769 5770 5770 5771 5772 5772 5773 5773 5774 5774 5774 5774 5775 5775 5775 5776 5776 5776 5776 5776 5776 5776 5776
5754 5754 5754 5754 5754 5754 5754 5754 5754 5755 5755 5756 5756 5757 5758 5759 5760 5760 5761 5762 5762 5763 5763 5763 5763 5764 5765 5765 5765 5766 5766 5767 5767 5767 5767 5768 5768 5768 5769 5769 5769 5769 5768
5748 5747 5747 5747 5747 5747 5747 5747 5748 5748 5749 5749 5750 5750 5751 5751 5752 5753 5753 5754 5754 5755 5755 5755 5756 5756 5756 5756 5756 5757 5757 5758 5759 5759 5759 5760 5760 5760 5761 5761 5761 5761 5761